Wind_Speed
56 61 56 51 55 57 58 59 58 57 55 56 54 54 52 35 38 34 34 30 28 23 26 27 25 24 22 23 23 20 22 25 29 37 35 33 31 30 30 31 32 31 30 30
62 58 43 49 51 49 48 51 53 49 49 51 51 49 47 38 37 34 28 26 25 26 27 26 24 21 23 23 19 22 24 27 31 34 32 31 29 29 31 32 31 31 31 34
65 47 48 48 43 44 43 42 39 40 40 45 46 50 49 40 38 33 26 26 20 24 25 24 22 20 21 21 19 22 24 27 31 31 30 28 28 29 31 29 30 32 33 33
67 58 54 47 48 46 40 29 24 30 30 39 43 53 45 37 37 29 23 22 21 25 19 21 19 22 22 17 19 21 23 26 27 28 26 26 28 29 26 28 30 31 32 27
65 65 61 50 45 39 31 25 22 25 31 38 41 48 34 28 24 23 23 23 24 19 23 20 21 21 14 15 16 19 21 23 24 24 23 25 28 28 27 29 27 28 26 23
66 62 56 50 46 40 38 32 31 31 35 42 36 39 34 16 20 20 21 26 18 21 18 16 20 18 13 16 17 19 18 20 20 22 22 25 28 25 26 25 29 25 23 16
67 67 63 57 55 50 45 41 38 38 42 35 32 39 9 15 9 18 23 18 21 17 15 14 18 13 13 16 15 17 18 18 19 21 22 26 24 22 22 25 23 20 14 7
68 67 65 59 54 50 48 39 40 32 32 32 28 35 19 17 12 14 16 17 21 18 14 14 12 10 12 12 13 15 17 17 17 17 22 21 18 19 21 20 18 16 7 4
69 66 62 56 49 45 42 42 35 32 33 24 30 23 14 18 14 18 11 18 20 18 14 12 7 9 10 8 13 12 14 15 14 17 20 16 17 18 18 17 15 7 7 9
70 71 62 56 51 45 43 38 36 37 36 32 31 25 13 17 19 16 16 21 22 17 11 7 5 8 8 10 10 9 13 13 12 17 16 15 16 17 16 18 8 6 9 10
69 68 65 61 57 50 50 48 46 41 34 33 25 22 10 19 19 14 22 24 20 12 10 6 4 7 7 10 6 9 12 12 12 15 16 15 16 17 14 10 4 8 9 10
68 66 61 58 56 48 45 43 39 37 34 31 21 16 15 22 24 19 22 23 18 11 4 4 2 6 5 5 5 9 11 10 13 15 14 14 15 12 10 9 5 9 8 11
69 67 62 57 56 53 50 48 46 45 38 33 23 12 17 22 25 22 18 22 14 11 2 1 2 5 5 1 4 8 11 11 13 13 11 12 14 8 9 9 7 8 10 9
68 67 65 59 52 53 53 49 50 50 45 32 27 16 20 27 27 25 22 21 12 8 4 2 2 2 3 1 4 9 11 11 11 12 11 10 10 10 9 12 9 8 10 10
63 65 62 58 59 54 51 48 48 48 41 33 26 24 31 29 30 23 23 17 10 7 4 2 2 2 3 2 4 8 11 12 10 10 9 9 8 11 10 8 9 10 9 9
63 62 60 56 56 56 52 46 48 44 37 29 27 35 34 32 27 26 24 16 11 9 2 2 2 4 4 4 5 7 11 11 9 9 9 8 7 8 8 8 6 8 9 8
63 64 61 59 56 54 55 47 46 45 32 32 39 35 36 32 27 28 22 15 12 10 4 3 3 6 5 5 6 7 9 10 8 9 10 11 12 10 10 8 8 11 10 13
55 66 61 59 57 55 47 47 43 38 31 30 46 47 42 36 33 31 25 16 12 12 6 7 4 6 6 5 6 7 8 8 7 8 10 12 12 13 11 11 11 15 14 12
48 63 63 59 59 52 49 45 44 40 37 38 51 47 42 37 32 28 26 20 13 13 8 10 6 7 8 5 6 7 6 7 5 7 9 11 12 13 17 13 16 16 16 14
41 53 60 60 57 54 55 50 41 38 38 40 50 50 44 38 33 32 29 23 19 14 12 10 10 8 8 7 5 7 6 6 4 5 8 10 11 13 17 20 18 20 19 17
27 39 48 60 59 57 52 50 45 41 43 43 50 49 46 39 35 34 32 25 19 16 12 9 11 9 9 9 5 5 5 4 5 4 7 9 11 13 14 14 14 15 17 23
23 28 38 51 60 58 48 48 50 47 43 42 42 46 43 39 39 36 33 29 20 17 15 9 8 11 9 10 7 4 4 2 5 5 5 7 8 9 10 11 10 12 14 16
25 26 28 40 55 55 52 57 49 43 43 41 39 44 42 39 39 35 33 33 25 22 20 14 9 10 10 10 10 6 3 3 4 5 5 6 5 4 6 7 8 8 10 14
22 29 26 29 43 53 56 53 54 46 41 42 39 44 42 38 37 34 31 32 30 26 23 18 14 10 12 11 10 10 7 4 5 6 6 5 6 5 6 10 11 13 14 15
26 26 25 24 32 41 51 56 47 49 46 42 40 41 40 38 36 34 33 31 31 30 26 22 17 13 12 13 11 12 11 9 7 5 7 6 7 8 7 11 13 13 14 15
34 24 26 26 28 42 45 49 53 44 45 47 42 41 41 39 39 38 35 32 31 30 29 26 21 17 16 15 13 15 12 12 12 8 7 10 9 11 10 11 12 12 11 11
Wind_Direction
242 241 244 248 252 256 257 260 263 266 270 269 268 268 269 265 259 262 264 266 265 278 279 274 262 274 278 285 285 296 304 307 312 309 304 304 309 313 316 318 319 311 311 311
238 243 251 247 247 252 256 258 260 262 264 266 263 262 262 257 250 252 257 252 255 276 273 264 265 279 286 287 290 299 302 306 305 301 303 305 312 316 317 318 312 309 309 308
238 249 249 250 248 247 251 256 263 265 262 262 263 257 257 249 246 243 245 244 262 275 265 264 273 279 283 284 288 287 292 297 299 298 302 309 314 319 318 314 312 311 309 310
235 237 237 240 238 240 241 262 260 252 251 250 258 259 249 254 240 240 241 246 269 259 255 263 271 282 283 292 285 286 292 298 297 299 304 311 315 321 317 315 313 314 316 314
232 233 234 231 235 239 243 251 245 243 246 250 250 258 255 244 229 236 237 245 253 252 246 259 272 281 287 298 303 298 294 294 297 302 310 313 320 318 313 314 316 317 320 316
224 229 232 233 234 235 237 234 241 243 248 247 245 248 247 214 227 232 230 241 241 233 246 257 276 275 298 301 293 295 296 299 303 310 310 318 321 317 313 318 318 322 323 323
217 222 223 224 227 226 222 224 232 240 246 252 243 243 149 200 207 222 239 235 227 242 263 265 276 292 288 287 298 296 300 306 314 315 319 323 322 319 324 327 329 332 335 340
209 215 219 222 226 227 227 228 240 250 258 260 235 233 194 237 236 245 237 229 232 239 253 269 292 303 293 305 309 302 305 315 322 329 331 331 332 330 339 338 343 339 352 20
205 210 216 217 221 224 221 223 231 241 244 242 231 220 175 220 249 251 238 228 236 254 251 267 301 317 310 321 315 304 314 324 335 336 339 341 336 341 343 345 344 2 54 64
202 206 210 213 214 215 217 223 225 231 238 225 224 201 194 220 233 237 216 218 231 243 243 263 308 310 319 315 305 315 327 342 343 344 344 347 346 349 350 347 354 62 68 86
199 203 205 209 208 212 214 214 216 222 230 223 215 194 204 203 213 218 218 226 236 220 240 268 288 311 308 312 306 332 342 355 348 348 345 347 345 353 4 5 38 74 71 91
198 202 202 207 207 209 215 221 227 233 235 231 223 205 203 201 206 207 217 236 229 218 231 306 251 316 305 320 324 348 356 353 346 344 345 352 350 358 12 12 44 75 75 83
198 200 196 197 204 204 210 217 218 221 226 225 216 171 185 191 201 205 217 228 220 215 228 252 33 312 332 13 342 2 6 350 349 355 4 4 356 16 24 34 48 67 79 84
203 202 197 200 203 204 210 210 216 221 225 222 208 186 184 179 196 206 212 218 221 214 246 215 67 289 14 74 360 12 8 357 359 15 23 9 25 37 57 54 76 74 87 88
205 202 197 197 203 204 210 212 216 222 222 217 208 183 178 188 200 200 213 203 219 225 240 202 115 177 70 94 18 19 15 0 2 21 38 26 54 40 58 56 60 79 96 100
203 203 197 196 204 205 210 212 215 215 217 205 178 176 182 191 195 195 200 193 221 229 206 145 134 161 86 72 48 30 22 8 15 48 68 42 32 28 53 48 54 74 93 113
206 202 197 197 202 204 209 211 215 216 210 195 175 169 183 195 189 193 196 193 217 223 171 165 183 163 102 68 66 46 29 22 42 64 68 57 43 37 66 57 74 67 88 119
208 206 199 197 203 205 202 212 215 208 199 187 165 177 185 190 187 190 187 185 230 228 173 165 165 173 126 70 71 59 39 35 67 70 69 62 46 54 84 78 75 73 89 104
206 210 205 202 201 205 204 207 211 199 192 175 173 189 190 190 188 188 183 179 205 236 204 166 162 182 155 111 73 69 53 46 73 74 59 63 67 65 71 93 86 85 85 78
209 213 209 202 201 204 208 208 212 195 191 180 179 188 192 192 188 191 184 179 191 211 223 167 169 173 170 144 92 72 64 66 67 77 70 75 79 77 75 89 91 85 85 90
206 215 214 209 204 203 209 209 209 201 190 187 183 189 194 196 191 193 188 177 191 204 222 214 175 167 180 171 141 82 69 88 91 90 85 91 93 87 88 90 88 85 93 90
189 206 215 211 209 209 209 210 207 207 193 190 187 190 198 198 191 191 193 177 189 200 220 200 170 184 177 184 167 123 88 96 120 113 102 101 106 102 92 93 92 89 94 97
164 185 201 211 212 208 208 212 212 206 197 197 191 191 193 197 192 191 192 184 187 197 207 196 188 190 187 187 186 179 152 140 156 143 128 128 122 111 103 90 104 115 104 101
164 172 186 202 211 212 210 212 213 210 204 198 191 191 194 196 195 192 197 190 188 195 202 202 189 197 206 191 195 186 187 167 164 176 163 154 152 146 126 119 115 111 109 107
180 172 186 200 209 211 213 213 214 208 206 202 197 192 196 199 200 200 202 198 193 197 201 205 195 201 213 207 198 197 183 182 171 171 184 175 170 166 157 141 138 131 125 121
206 188 193 207 209 213 210 213 214 210 206 209 204 198 198 202 208 210 208 207 202 201 204 207 204 202 215 209 209 202 193 186 181 175 176 188 189 187 180 172 164 158 146 145
Height
5727 5728 5734 5744 5747 5752 5757 5758 5761 5766 5772 5777 5777 5774 5774 5784 5783 5783 5783 5786 5787 5788 5788 5786 5785 5784 5782 5779 5778 5774 5771 5768 5765 5761 5757 5752 5748 5742 5736 5732 5728 5725 5720 5716
5712 5717 5734 5738 5740 5744 5747 5748 5750 5759 5761 5760 5762 5762 5764 5772 5774 5774 5777 5780 5782 5783 5781 5781 5780 5778 5776 5775 5772 5769 5766 5763 5759 5756 5751 5747 5742 5736 5731 5726 5723 5719 5714 5710
5700 5718 5727 5727 5732 5734 5737 5740 5746 5746 5750 5747 5748 5748 5752 5762 5765 5768 5771 5774 5777 5776 5776 5777 5776 5773 5771 5770 5766 5764 5760 5757 5754 5750 5746 5741 5736 5730 5726 5722 5718 5713 5708 5703
5688 5705 5706 5714 5718 5722 5727 5737 5737 5736 5737 5739 5739 5731 5744 5755 5757 5762 5765 5768 5771 5770 5772 5772 5771 5769 5767 5763 5761 5759 5755 5751 5749 5745 5741 5736 5731 5726 5722 5718 5712 5707 5701 5697
5682 5684 5692 5702 5711 5720 5725 5727 5728 5728 5727 5728 5730 5726 5743 5749 5755 5759 5760 5763 5764 5765 5765 5767 5767 5764 5761 5758 5755 5752 5749 5747 5743 5740 5736 5731 5726 5722 5718 5712 5708 5702 5696 5692
5662 5673 5683 5698 5703 5711 5715 5718 5718 5719 5719 5716 5725 5725 5734 5747 5748 5751 5754 5757 5760 5760 5762 5763 5761 5758 5755 5753 5750 5748 5745 5742 5739 5735 5731 5727 5722 5718 5713 5708 5703 5697 5693 5689
5643 5655 5670 5680 5687 5697 5702 5706 5709 5711 5709 5714 5722 5720 5737 5741 5745 5746 5749 5753 5755 5757 5759 5758 5756 5752 5751 5749 5746 5744 5741 5738 5735 5731 5727 5723 5718 5714 5709 5704 5698 5694 5691 5688
5626 5640 5657 5670 5678 5689 5695 5702 5705 5708 5709 5712 5716 5715 5734 5736 5740 5743 5746 5750 5751 5753 5755 5754 5751 5748 5746 5744 5742 5740 5737 5735 5731 5727 5724 5720 5716 5712 5707 5702 5696 5693 5691 5689
5612 5630 5647 5662 5671 5682 5689 5691 5703 5703 5704 5712 5710 5722 5730 5731 5736 5738 5744 5745 5747 5750 5751 5749 5747 5744 5742 5741 5739 5737 5735 5732 5728 5725 5722 5718 5714 5710 5706 5701 5697 5695 5692 5690
5601 5616 5634 5649 5660 5671 5679 5690 5692 5693 5695 5704 5706 5718 5726 5729 5732 5736 5740 5741 5744 5747 5747 5744 5742 5740 5739 5739 5736 5735 5732 5729 5726 5723 5720 5717 5713 5709 5704 5701 5698 5697 5695 5693
5592 5606 5621 5632 5648 5660 5666 5671 5678 5684 5690 5698 5707 5717 5722 5725 5727 5733 5736 5738 5742 5743 5743 5740 5738 5738 5737 5736 5734 5732 5730 5727 5725 5722 5719 5716 5713 5709 5705 5702 5700 5698 5697 5696
5579 5595 5610 5632 5641 5654 5663 5671 5679 5682 5688 5695 5707 5713 5716 5719 5724 5731 5734 5737 5740 5740 5738 5737 5736 5735 5735 5733 5732 5730 5728 5726 5724 5721 5718 5716 5712 5709 5706 5704 5702 5701 5700 5699
5570 5582 5600 5614 5629 5643 5651 5659 5668 5673 5681 5689 5701 5710 5710 5716 5723 5728 5732 5735 5736 5737 5735 5735 5733 5733 5733 5731 5731 5729 5727 5725 5723 5719 5717 5715 5712 5709 5708 5706 5705 5703 5703 5702
5563 5578 5593 5612 5628 5637 5644 5649 5656 5663 5672 5686 5696 5705 5708 5714 5719 5724 5728 5731 5734 5734 5732 5733 5732 5732 5731 5730 5730 5728 5726 5724 5722 5719 5718 5715 5713 5711 5709 5708 5706 5705 5705 5705
5561 5574 5589 5604 5615 5627 5636 5646 5652 5657 5670 5682 5692 5698 5705 5710 5714 5721 5725 5728 5730 5731 5731 5730 5730 5731 5730 5729 5729 5728 5726 5724 5722 5719 5718 5716 5715 5713 5711 5710 5708 5707 5707 5708
5557 5570 5585 5600 5609 5621 5629 5639 5646 5654 5665 5678 5687 5692 5699 5704 5712 5718 5723 5725 5728 5729 5729 5728 5729 5730 5729 5729 5728 5727 5726 5725 5723 5721 5719 5718 5716 5714 5712 5711 5710 5709 5709 5710
5553 5563 5578 5593 5601 5613 5623 5634 5641 5651 5664 5672 5679 5692 5695 5701 5709 5716 5720 5723 5726 5728 5727 5728 5729 5729 5729 5728 5727 5727 5726 5726 5724 5723 5722 5720 5718 5716 5714 5713 5713 5712 5711 5712
5548 5557 5574 5586 5598 5606 5622 5629 5637 5651 5660 5668 5676 5678 5685 5692 5700 5706 5713 5718 5724 5726 5726 5727 5728 5729 5729 5728 5727 5727 5727 5726 5726 5725 5724 5723 5722 5719 5716 5716 5716 5715 5714 5715
5546 5554 5569 5582 5594 5606 5618 5623 5630 5644 5654 5663 5671 5676 5683 5690 5698 5706 5711 5714 5721 5724 5725 5725 5727 5728 5728 5728 5727 5727 5727 5727 5727 5727 5725 5724 5724 5724 5720 5719 5720 5719 5719 5718
5546 5552 5565 5577 5591 5601 5608 5619 5628 5642 5650 5657 5667 5673 5681 5688 5696 5703 5708 5710 5715 5719 5723 5724 5726 5727 5727 5727 5727 5727 5727 5728 5728 5727 5727 5727 5727 5726 5725 5724 5724 5724 5723 5722
5545 5550 5562 5574 5586 5596 5601 5614 5625 5636 5646 5652 5663 5670 5678 5686 5694 5698 5703 5706 5712 5716 5719 5722 5724 5725 5726 5727 5728 5727 5728 5729 5729 5728 5729 5729 5730 5730 5730 5729 5729 5728 5728 5728
5545 5551 5559 5570 5582 5592 5599 5610 5620 5627 5640 5649 5659 5667 5675 5682 5689 5695 5700 5702 5708 5713 5717 5720 5722 5724 5724 5725 5727 5727 5728 5728 5730 5730 5730 5731 5732 5732 5733 5733 5733 5733 5733 5733
5546 5552 5558 5568 5577 5587 5595 5605 5614 5629 5639 5647 5656 5664 5672 5679 5686 5692 5696 5700 5704 5710 5713 5716 5719 5721 5723 5724 5725 5727 5727 5728 5729 5731 5732 5732 5733 5734 5735 5736 5736 5737 5737 5738
5544 5550 5558 5566 5574 5584 5592 5601 5612 5624 5635 5643 5652 5661 5668 5675 5682 5688 5693 5697 5701 5707 5710 5713 5715 5719 5721 5722 5724 5725 5726 5728 5729 5730 5732 5733 5734 5735 5736 5738 5739 5740 5741 5742
5545 5549 5556 5564 5573 5580 5589 5598 5608 5620 5630 5640 5649 5658 5664 5671 5678 5683 5689 5694 5698 5703 5707 5710 5713 5716 5719 5720 5722 5724 5725 5726 5728 5729 5731 5733 5735 5736 5738 5739 5741 5743 5744 5745
5543 5549 5556 5563 5570 5575 5584 5593 5603 5614 5624 5635 5644 5653 5660 5667 5673 5679 5685 5690 5695 5700 5704 5708 5710 5712 5716 5718 5720 5722 5723 5725 5726 5728 5730 5732 5734 5736 5738 5740 5742 5745 5747 5748